Location: Gälforsberget
(66.6500°N, 22.4167°E)
Time: 11:02:28
(UTC+00:00)

Cosmos 1934 Rocket - Pass Details

Date: 11 April 2026
Orbit: 936 x 999 km, 83.0° (Epoch: 10 May)

Event Time Altitude Azimuth Distance (km) Brightness Sun altitude
Exits shadow 20:19:17 12° 165° (SSE) 2,569 5.6 -11.1°
Maximum altitude 20:24:51 52° 93° (E) 1,205 4.3 -11.4°
Drops below altitude 10° 20:30:51 10° 19° (NNE) 2,722 6.9 -11.7°
Sets 20:33:24 0° 15° (NNE) 3,663 7.7 -11.8°
